Quincy, IL

9:07 AM CDT on September 21, 2019 (GMT -0500)
Quincy Regional-Baldwin

Weather History for KUIN - July, 2019

Change the Weather History Date:

Friday, July 19, 2019

  Actual Average Record
Temperature  
Mean Temperature 86 °F 76 °F  
Max Temperature 94 °F 86 °F 108 °F (1934)
Min Temperature 77 °F 66 °F 56 °F (1909)
Degree Days  
Heating Degree Days 0 0  
Month to date heating degree days 0 0  
Since 1 June heating degree days 5 16  
Since 1 July heating degree days 0 0  
Cooling Degree Days 21 11  
Month to date cooling degree days 302 209  
Year to date cooling degree days 649 522  
Since 1 June cooling degree days 539 436  
Growing Degree Days 35 (Base 50)    
Moisture  
Dew Point 74 °F    
Average Humidity 69    
Maximum Humidity 82    
Minimum Humidity 56    
Precipitation  
Precipitation 0.00 in 0.13 in 1.68 in (2010)
Month to date precipitation 0.89 2.55  
Year to date precipitation 24.29 20.63  
Sea Level Pressure  
Sea Level Pressure 29.83 in    
Wind  
Wind Speed 12 mph (SSW)    
Max Wind Speed 18 mph    
Max Gust Speed 27 mph    
Visibility 10 miles    
Events      
T = Trace of Precipitation, MM = Missing Value Source: NWS Daily Summary

Daily Weather History Graph

Daily Weather History Graph

Search for Another Location

Airport or City:

Astronomy

Jul. 19, 2019 Rise Set
Actual Time 5:51 AM CDT 8:29 PM CDT
Civil Twilight 5:20 AM CDT 9:01 PM CDT
Nautical Twilight 4:40 AM CDT 9:40 PM CDT
Astronomical Twilight 3:56 AM CDT 10:24 PM CDT
Moon 10:28 PM CDT (7/19) 8:18 AM CDT (7/19)
Length of Visible Light 15h 41m
Length of Day
14h 38m
Waning Gibbous, 93% of the Moon is Illuminated
Jul 19
Waning Gibbous
Jul 24
Last Quarter
Jul 31
New
Aug 7
First Quarter
Aug 15
Full

Hourly Weather History & Observations

Time (CDT) Temp. Heat Index Dew Point Humidity Pressure Visibility Wind Dir Wind Speed Gust Speed Precip Events Conditions
12:54 AM 82.0 °F 87.4 °F 73.0 °F 74% 29.81 in 10.0 mi SSW 11.5 mph - N/A   Clear
1:54 AM 81.0 °F 85.2 °F 72.0 °F 74% 29.81 in 10.0 mi SW 11.5 mph - N/A   Clear
2:54 AM 80.1 °F 83.6 °F 71.1 °F 74% 29.80 in 10.0 mi SSW 11.5 mph - N/A   Clear
3:54 AM 78.1 °F - 71.1 °F 79% 29.81 in 10.0 mi SSW 9.2 mph - N/A   Clear
4:54 AM 77.0 °F - 71.1 °F 82% 29.82 in 10.0 mi South 8.1 mph - N/A   Clear
5:54 AM 77.0 °F - 71.1 °F 82% 29.83 in 10.0 mi SSW 8.1 mph - N/A   Clear
6:54 AM 78.1 °F - 71.1 °F 79% 29.85 in 10.0 mi SSW 10.4 mph - N/A   Clear
7:54 AM 81.0 °F 85.2 °F 72.0 °F 74% 29.86 in 10.0 mi SSW 12.7 mph - N/A   Clear
8:54 AM 82.9 °F 88.8 °F 73.0 °F 72% 29.87 in 10.0 mi SW 11.5 mph - N/A   Clear
9:54 AM 86.0 °F 93.0 °F 73.0 °F 65% 29.86 in 10.0 mi SW 13.8 mph - N/A   Clear
10:54 AM 88.0 °F 96.5 °F 73.9 °F 63% 29.85 in 10.0 mi SW 13.8 mph - N/A   Clear
11:54 AM 90.0 °F 100.2 °F 75.0 °F 61% 29.86 in 10.0 mi SSW 15.0 mph - N/A   Clear
12:54 PM 91.9 °F 103.2 °F 75.0 °F 58% 29.86 in 10.0 mi South 13.8 mph - N/A   Clear
1:54 PM 93.0 °F 105.3 °F 75.9 °F 57% 29.84 in 10.0 mi SSW 15.0 mph 21.9 mph N/A   Clear
2:54 PM 93.9 °F 108.4 °F 77.0 °F 58% 29.84 in 10.0 mi SSW 13.8 mph 23.0 mph N/A   Clear
3:54 PM 93.0 °F 106.7 °F 77.0 °F 59% 29.82 in 10.0 mi South 13.8 mph - N/A   Clear
4:54 PM 93.0 °F 106.7 °F 77.0 °F 59% 29.81 in 10.0 mi South 15.0 mph - N/A   Clear
5:54 PM 91.9 °F 103.9 °F 75.9 °F 59% 29.80 in 10.0 mi South 13.8 mph 24.2 mph N/A   Clear
6:54 PM 91.0 °F 102.9 °F 75.9 °F 61% 29.80 in 10.0 mi South 13.8 mph - N/A   Clear
7:54 PM 88.0 °F 98.5 °F 75.9 °F 67% 29.79 in 10.0 mi South 10.4 mph - N/A   Clear
8:54 PM 86.0 °F 96.0 °F 75.9 °F 72% 29.79 in 10.0 mi South 10.4 mph - N/A   Clear
9:54 PM 84.9 °F 94.1 °F 75.9 °F 74% 29.80 in 10.0 mi South 10.4 mph - N/A   Clear
10:54 PM 84.0 °F 91.9 °F 75.0 °F 74% 29.83 in 10.0 mi South 9.2 mph - N/A   Clear
11:54 PM 82.9 °F 90.2 °F 75.0 °F 77% 29.84 in 10.0 mi South 9.2 mph - N/A   Clear